COSMOS 1808

Satellite information

Favourite Embed

Satellite Type and Status

PAYLOADIN ORBIT

Key statistics

Satellite COSMOS 1808 at a glance.

Uptime

14195

Days in orbit

Revolutions

≈ 13.7

Per day

Orbit

LEO

Low Earth Orbit

Inclination

82.9

Latest

Satellite identification and parameters

Extended collection of information and parameters for COSMOS 1808.

Object identification

Identified? True

Debris? False

Object name: COSMOS 1808

International designator: 1986-100A

Object number (NORAD): 17239

Object ID (CCSDS): 17239

Country: COMMONWEALTH OF INDEPENDENT STATES (CIS)

Current information (Y/N): Y

RCS size: LARGE

Orbital parameters

Period: 104.939 minutes

Inclination: 82.936 deg

SMA: 7369.746 km

Apoapsis: 1016.343 km

Periapsis: 966.879 km

RAAN: 343.7075 deg

Eccentricy: 0.00335585

Argument of periapsis: 144.9583 deg

Mean anomaly: 21.4156 deg

Mean motion: 13.72220797 rev/day

Mean motion (dot): 0.00000069 rev/day2

B* drag term: 0.000058638072 1/REarth

Two-line elements (TLE)

Creation date: Oct. 28, 2025, 2:18 a.m.

Reference frame: TEME

Reference center: EARTH

Epoch: Oct. 27, 2025, 2:53 p.m. UTC

TLE line 0: 0 COSMOS 1808

TLE line 1: 1 17239U 86100A 25300.62038354 .00000069 00000-0 58638-4 0 9997

TLE line 2: 2 17239 82.9360 343.7075 0033558 144.9583 21.4156 13.72220797945523

Live tracking on map

Real-time ground track for satellite COSMOS 1808.

In-orbit conjunctions

A list of the most updated potential collisions computed for object COSMOS 1808.

Target Orbit TCA Probability of collision Miss distance Type
COSMOS 887 DEB LEO 2025-09-17 09:22:56 0.0001432781 238.0 (m) DEBRIS
SL-16 DEB LEO 2025-06-14 13:27:48 0.0004035092 429.0 (m) DEBRIS

Associated space launch

Navigation satellite providing location information for the Tsiklon-B navigation system

COSMOS 1808 was lifted into orbit during the mission ‘Kosmos-3M | Parus 57’, on board a Kosmos-3M space rocket.

The launch took place on Dec. 17, 1986, 5:02 p.m. from 132/1 (132L).

For more information about the launch, click the button.

Launch to space Kosmos-3M | Parus 57
Kosmos-3M | Parus 57

Agency: N/A

Status: Launch Successful

Launch date: Dec. 17, 1986, 5:02 p.m. UTC

Rocket: Kosmos-3M

Launch pad: 132/1 (132L)

Location: Plesetsk Cosmodrome, Russian Federation

...

Latest news about this satellite

There are no fresh news available about this satellite. Check back as we update our databases every day.


Newsletter sign-up

Weekly statistics, charts and insights to help you stay on top of the space industry.